User: anonymous   Login
Location: Unspecified
(0.0000°N, 0.0000°E)
Time: 12:06:08
(UTC+00:00)
Language:

PLEIADES HR1 - Orbit

View from above orbital plane
View from above orbital plane
View from above satellite
View from above satellite

Ground track
Ground track

The orbit data is extracted from the following two-line orbital elements,

1 38012U 11076F   16237.16097327  .00000033  00000-0  16909-4 0  9998
2 38012  98.1956 310.5776 0001438  85.2605 274.8767 14.58565569249566
Epoch (UTC): 24 August 2016 03:51:48
Eccentricity: 0.0001438
inclination: 98.1956°
perigee height: 697 km
apogee height: 699 km
right ascension of ascending node: 310.5776°
argument of perigee: 85.2605°
revolutions per day: 14.58565569
mean anomaly at epoch: 274.8767°
orbit number at epoch: 24956

The dashed part of the orbit path shows where the satellite is in the earth's shadow,  

DLR